Zurück zum Katalog

STARLINK-32189

AktivKommunikationVLEO
NORAD 60317·PAYLOAD·🇺🇸 United States

Gestartet Jul 28, 2024 von Vandenberg Space Force Base

Loading…

Nächste Überflüge (nächste 24 Stunden)

TLE

AktuellSource: CelesTrak SupGP

Epoche: Sep 14, 2026, 21:38 UTC

1 60317C 24133S   26257.90187500 -.00064116  00000+0 -18941-2 0  2573
2 60317  53.1559 135.7491 0001188  93.8341 279.5671 15.34426222    12

Verfolge STARLINK-32189 in Echtzeit mit AllMySat

Download on the App Store